Weather History for Yellowstone, WY

Change the Weather History Date:

Friday, May 3, 2013

  Actual Average Record
Temperature  
Mean Temperature 32 °F 36 °F  
Max Temperature 45 °F 48 °F 59 °F (2004)
Min Temperature 19 °F 25 °F 15 °F (2008)
Degree Days  
Heating Degree Days 33 29  
Month to date heating degree days 115 87  
Since 1 July heating degree days 10544 10338  
Cooling Degree Days 0 0  
Month to date cooling degree days 0 0  
Year to date cooling degree days 0 0  
Moisture  
Dew Point 18 °F    
Average Humidity 56    
Maximum Humidity 84    
Minimum Humidity 27    
Precipitation  
Precipitation 0.00 in 0.07 in 0.44 in (2010)
Month to date precipitation 0.04 0.21  
Year to date precipitation 7.00 7.02  
Sea Level Pressure  
Sea Level Pressure 30.30 in    
Wind  
Wind Speed 1 mph (East)    
Max Wind Speed 7 mph    
Max Gust Speed 12 mph    
T = Trace of Precipitation, MM = Missing Value Source: NWS Daily Summary

Daily Weather History Graph

Daily Weather History Graph

Search for Another Location

Airport:

Trip Planner

Search our weather history database for the weather conditions in past years. The results will help you decide how hot, cold, wet, or windy it might be!

Date:

Astronomy

May. 03, 2013 Rise Set
Actual Time 6:08 AM MDT 8:29 PM MDT
Civil Twilight 5:36 AM MDT 9:01 PM MDT
Nautical Twilight 4:56 AM MDT 9:41 PM MDT
Astronomical Twilight 4:11 AM MDT 10:27 PM MDT
Moon 2:50 AM MDT (5/3) 2:13 PM MDT (5/3)
Length of Visible Light 15h 25m
Length of Day
14h 20m
Last Quarter, 36% of the Moon is Illuminated
May 3
Last Quarter
May 9
New
May 17
First Quarter
May 24
Full
May 31
Last Quarter

Hourly Weather History & Observations

Time (MDT) Temp. Windchill Dew Point Humidity Pressure Visibility Wind Dir Wind Speed Gust Speed Precip Events Conditions
12:56 AM 21.9 °F - 16.0 °F 78% 30.50 in - Calm Calm - N/A   Unknown
1:56 AM 19.9 °F - 14.0 °F 78% 30.49 in - Calm Calm - N/A   Unknown
2:56 AM 19.9 °F - 14.0 °F 78% 30.45 in - Calm Calm - N/A   Unknown
3:56 AM 19.0 °F - 14.0 °F 81% 30.41 in - Calm Calm - N/A   Unknown
4:56 AM 19.9 °F - 14.0 °F 78% 30.38 in - Calm Calm - N/A   Unknown
5:56 AM 19.9 °F - 15.1 °F 81% 30.38 in - Calm Calm - N/A   Unknown
6:56 AM 23.0 °F - 16.0 °F 74% 30.36 in - Calm Calm - N/A   Unknown
7:56 AM 25.0 °F - 18.0 °F 75% 30.38 in - Calm Calm - N/A   Unknown
8:56 AM 28.0 °F - 17.1 °F 63% 30.37 in - Calm Calm - N/A   Unknown
9:56 AM 30.9 °F - 19.0 °F 61% 30.34 in - Calm Calm - N/A   Unknown
10:56 AM 34.0 °F - 15.1 °F 46% 30.32 in - Calm Calm - N/A   Unknown
11:56 AM 34.0 °F 31.0 °F 15.1 °F 46% 30.32 in - East 3.5 mph - N/A   Unknown
12:56 PM 37.9 °F - 16.0 °F 41% 30.29 in - Calm Calm - N/A   Unknown
1:56 PM 44.1 °F - 12.0 °F 27% 30.24 in - Calm Calm - N/A   Unknown
2:56 PM 43.0 °F - 17.1 °F 35% 30.23 in - Calm Calm - N/A   Unknown
3:56 PM 43.0 °F - 18.0 °F 37% 30.23 in - Calm Calm - N/A   Unknown
4:56 PM 43.0 °F 41.3 °F 19.9 °F 40% 30.20 in - Variable 3.5 mph - N/A   Unknown
5:56 PM 44.1 °F 41.5 °F 19.9 °F 38% 30.20 in - Variable 4.6 mph - N/A   Unknown
6:56 PM 43.0 °F 40.3 °F 19.0 °F 38% 30.19 in - Variable 4.6 mph - N/A   Unknown
7:56 PM 41.0 °F - 21.0 °F 45% 30.19 in - Calm Calm - N/A   Unknown
8:56 PM 37.0 °F - 24.1 °F 59% 30.19 in - Calm Calm - N/A   Unknown
9:56 PM 37.0 °F - 24.1 °F 59% 30.19 in - Calm Calm - N/A   Unknown
10:56 PM 36.0 °F - 25.0 °F 64% 30.17 in - Calm Calm - N/A   Unknown
11:56 PM 35.1 °F - 26.1 °F 70% 30.17 in - Calm Calm - N/A   Unknown